x

Mitchell Field Weather Station

6:51am - Fri 18th Apr 2014 All times are EDT. -4 hours from GMT.

  • Wind
    13mph, 28mph gusts
  • Air Temp 48°f
  • Sea Pressure 1028.1mb
  • Mitchell Field
  • Mitchell Field

More Historic Weather Station data

Upgrade to MSW Pro to gain access to the past 30 days of data for over 8000 Wavebouys and Weather Stations around the globe.

Join Pro

Comparision Forecast

View Surf forecast
   
Fri 04/18 6:51am 13 28 mph 1028.1mb 48f
6:19am 13 29 mph 1028.1mb 48f
5:51am 15 24 mph 1027.8mb 49f
4:51am 13 24 mph 1027.8mb 49f
3:51am 15 24 mph 1027.8mb 49f
2:51am 15 24 mph 1027.8mb 49f
1:51am 10 24 mph 1028.8mb 50f
12:51am 13 22 mph 1029.8mb 50f
Thu 04/17 11:51pm 14 24 mph 1030.5mb 50f
11:08pm 10 25 mph 1030.5mb 50f
10:51pm 13 25 mph 1030.5mb 50f
10:36pm 13 23 mph 1030.5mb 50f
10:19pm 12 25 mph 1030.8mb 50f
10:04pm 12 22 mph 1030.8mb 50f
9:51pm 13 25 mph 1030.8mb 51f
8:51pm 12 22 mph 1030.1mb 50f
8:04pm 14 30 mph 1029.8mb 50f
7:51pm 15 25 mph 1030.1mb 50f
6:51pm 14 27 mph 1030.5mb 52f
5:51pm 15 29 mph 1030.8mb 54f
4:51pm 17 30 mph 1031.2mb 55f
3:51pm 17 35 mph 1031.2mb 54f
2:51pm 14 29 mph 1031.5mb 53f
1:51pm 16 32 mph 1031.8mb 55f
12:51pm 17 31 mph 1031.8mb 55f
11:51am 13 28 mph 1032.2mb 55f
10:51am 14 32 mph 1032.2mb 54f
9:51am 17 29 mph 1031.5mb 53f
8:51am 16 31 mph 1030.8mb 51f
7:51am 16 30 mph 1030.8mb 49f
6:51am 15 27 mph 1030.1mb 48f
5:51am 14 28 mph 1029.5mb 47f
4:51am 14 28 mph 1029.1mb 47f
3:51am 15 25 mph 1029.1mb 48f
2:51am 13 24 mph 1029.1mb 47f
1:51am 14 29 mph 1029.1mb 46f
12:51am 15 25 mph 1029.5mb 46f
Wed 04/16 11:51pm 15 27 mph 1030.1mb 45f
10:51pm 14 28 mph 1029.8mb 45f
9:51pm 14 27 mph 1029.8mb 45f
8:51pm 14 24 mph 1029.8mb 44f
8:27pm 14 23 mph 1029.8mb 45f
7:51pm 13 24 mph 1029.5mb 44f
6:51pm 10 20 mph 1029.1mb 44f
5:51pm 15 28 mph 1028.4mb 45f
5:00pm 16 30 mph 1027.8mb 45f
4:51pm 15 28 mph 1027.8mb 45f
3:51pm 18 29 mph 1027.8mb 44f
2:58pm 16 30 mph 1028.1mb 45f
2:51pm 17 29 mph 1028.1mb 46f
1:51pm 15 28 mph 1027.8mb 46f
1:34pm 15 33 mph 1027.8mb 46f
1:09pm 15 30 mph 1027.8mb 45f
1:02pm 14 30 mph 1027.4mb 45f
12:51pm 22 35 mph 1027.4mb 46f
11:51am 20 32 mph 1027.1mb 45f
10:51am 17 32 mph 1026.4mb 45f
10:15am 20 32 mph 1026.1mb 45f
9:51am 18 32 mph 1025.4mb 43f
8:51am 13 31 mph 1024mb 43f
7:51am 14 32 mph 1022.4mb 43f
7:29am 18 32 mph 1021.7mb 43f
6:51am 16 35 mph 1020.7mb 44f
5:51am 13 33 mph 1019mb 45f
4:51am 20 38 mph 1017.6mb 44f
3:51am 20 39 mph 1016.3mb 45f
2:51am 20 37 mph 1014.6mb 46f
1:51am 17 47 mph 1013.2mb 48f
12:51am 16 33 mph 1011.5mb 50f
12:31am 15 35 mph 1010.2mb 50f
12:13am 18 36 mph 1009.8mb 50f
12:08am 17 39 mph 1009.5mb 52f
Tue 04/15 11:59pm 16 38 mph 1009.1mb 52f
11:51pm 17 39 mph 1008.5mb 52f
11:48pm 16 39 mph 1008.8mb 54f
10:51pm 17 24 mph 1005.4mb 69f
9:51pm 13
mph
1006.4mb 68f
8:51pm 14
mph
1006.4mb 68f
7:51pm 16 23 mph 1006.1mb 67f
6:51pm 20 25 mph 1005.1mb 69f
5:51pm 13
mph
1007.5mb 69f
4:51pm 12 17 mph 1007.5mb 68f
3:51pm 13
mph
1007.8mb 68f
2:51pm 12
mph
1008.1mb 68f
1:51pm 15 18 mph 1008.8mb 67f
1:30pm 14
mph
1009.1mb 66f
1:13pm 13
mph
1009.1mb 68f
1:04pm 14 21 mph 1009.1mb 68f
12:53pm 17 25 mph 1009.1mb 66f
12:51pm 15 27 mph 1009.1mb 67f
12:47pm 16 29 mph 1009.1mb 66f
12:33pm 24 39 mph 1009.8mb 70f
12:25pm 23 32 mph 1009.5mb 70f
11:58am 20
mph
1009.8mb 70f
11:51am 14
mph
1009.8mb 69f
10:51am 20 30 mph 1010.2mb 70f
10:03am 18
mph
1010.5mb 70f
9:51am 20 27 mph 1010.5mb 69f
9:33am 21 28 mph 1010.5mb 70f
8:51am 21
mph
1010.8mb 69f
8:14am 18
mph
1010.8mb 68f
8:04am 20 29 mph 1010.8mb 68f
7:51am 20 28 mph 1010.8mb 69f
7:49am 20
mph
1010.8mb 68f
7:24am 20 30 mph 1011.5mb 68f
6:51am 20
mph
1011.2mb 67f
5:51am 20 31 mph 1011.5mb 68f
4:51am 21 29 mph 1011.5mb 68f
3:51am 16 24 mph 1012.5mb 68f
2:51am 20 27 mph 1012.9mb 68f
1:51am 16 25 mph 1013.2mb 68f
12:51am 20
mph
1014.2mb 68f
Mon 04/14 11:51pm 18 29 mph 1014.9mb 68f
10:51pm 17
mph
1015.2mb 68f
9:51pm 16 24 mph 1015.9mb 68f
8:51pm 14 21 mph 1015.9mb 68f
8:46pm 15 21 mph 1015.9mb 68f
8:36pm 12
mph
1015.9mb 68f
8:06pm 7
mph
1015.9mb 66f
7:51pm 7
mph
1015.9mb 66f
7:29pm 12
mph
1016.3mb 66f
7:23pm 10
mph
1016.3mb 66f
6:51pm 10
mph
1016.3mb 65f
5:51pm 14 21 mph 1016.9mb 67f
5:47pm 12 25 mph 1016.9mb 66f
4:51pm 15 21 mph 1016.9mb 70f
3:51pm 9
mph
1017.6mb 72f
2:51pm 8
mph
1018.3mb 72f
1:51pm 8
mph
1019mb 71f
12:51pm 9
mph
1019.6mb 71f
11:51am 8
mph
1020.3mb 72f